Weather History for Melbourne Airport, VC

Change the Weather History Date:

Wednesday, November 28, 2012

  Actual Average Record
Temperature  
Mean Temperature 72 °F -  
Max Temperature 86 °F 73 °F 91 °F (2000)
Min Temperature 57 °F 51 °F 46 °F (1996)
Cooling Degree Days 6    
Growing Degree Days 22 (Base 50)    
Moisture  
Dew Point 59 °F    
Average Humidity 69    
Maximum Humidity 94    
Minimum Humidity 31    
Precipitation  
Precipitation 0.00 in 0.06 in - ()
Sea Level Pressure  
Sea Level Pressure 29.92 in    
Wind  
Wind Speed 6 mph ()    
Max Wind Speed 14 mph    
Max Gust Speed -    
Visibility 6.7 miles    
Events      
Averages and records for this station are not official NWS values.
T = Trace of Precipitation, MM = Missing Value Source: Averaged Metar Reports

Daily Weather History Graph

Daily Weather History Graph

Search for Another Location

Airport:

Trip Planner

Search our weather history database for the weather conditions in past years. The results will help you decide how hot, cold, wet, or windy it might be!

Date:

Astronomy

Nov. 28, 2012 Rise Set
Actual Time 5:53 AM AEDT 8:23 PM AEDT
Civil Twilight 5:23 AM AEDT 8:54 PM AEDT
Nautical Twilight 4:45 AM AEDT 9:31 PM AEDT
Astronomical Twilight 4:04 AM AEDT 10:13 PM AEDT
Moon 8:05 PM AEDT (11/28) 5:27 AM AEDT (11/28)
Length of Visible Light 15h 30m
Length of Day
14h 30m
Full, 100% of the Moon is Illuminated
Nov 28
Full
Nov 29
Full
Dec 7
Last Quarter
Dec 13
New
Dec 20
First Quarter

Hourly Weather History & Observations

Time (AEDT) Temp. Heat Index Dew Point Humidity Pressure Visibility Wind Dir Wind Speed Gust Speed Precip Events Conditions
12:00 AM 59 °F - 57 °F 91% 30.01 in 6 mi SW 5.8 mph - -   Mist
12:00 AM 59.0 °F - 57.2 °F 94% 30.01 in 3.7 mi SW 5.8 mph - N/A   Scattered Clouds
12:30 AM 59.0 °F - 57.2 °F 94% 29.98 in 4.3 mi SW 6.9 mph - N/A   Scattered Clouds
1:00 AM 59.0 °F - 57.2 °F 94% 29.98 in 5.0 mi WSW 6.9 mph - N/A   Mostly Cloudy
1:30 AM 60.8 °F - 59.0 °F 94% 29.98 in 5.6 mi North 1.2 mph - N/A   Overcast
2:00 AM 60.8 °F - 59.0 °F 94% 29.98 in 5.6 mi WNW 5.8 mph - N/A   Overcast
2:30 AM 60.8 °F - 57.2 °F 88% 29.98 in 6.2 mi WSW 5.8 mph - N/A   Overcast
3:00 AM 61 °F - 57 °F 84% 29.99 in 6 mi West 8.1 mph - -   Mist
3:00 AM 60.8 °F - 57.2 °F 88% 29.98 in 5.6 mi West 8.1 mph - N/A   Overcast
3:30 AM 60.8 °F - 57.2 °F 88% 29.98 in 6.2 mi WSW 8.1 mph - N/A   Overcast
4:00 AM 60.8 °F - 59.0 °F 94% 29.98 in 6.2 mi WSW 6.9 mph - N/A   Overcast
4:30 AM 60.8 °F - 59.0 °F 94% 29.98 in 6.2 mi Calm Calm - N/A   Overcast
5:00 AM 61 °F - 58 °F 85% 29.96 in - WNW 3.5 mph - -  
5:00 AM 60.8 °F - 57.2 °F 88% 29.95 in 6.2 mi WNW 3.5 mph - N/A   Overcast
5:30 AM 60.8 °F - 57.2 °F 88% 29.95 in 6.2 mi NNW 4.6 mph - N/A   Overcast
6:00 AM 61 °F - 57 °F 84% 29.96 in 6 mi West 3.5 mph - -   Haze
6:00 AM 60.8 °F - 57.2 °F 88% 29.95 in 5.6 mi West 3.5 mph - N/A   Overcast
6:30 AM 60.8 °F - 59.0 °F 94% 29.95 in 5.0 mi Calm Calm - N/A   Overcast
7:00 AM 60.8 °F - 57.2 °F 88% 29.95 in 6.2 mi WNW 3.5 mph - N/A   Overcast
7:30 AM 62.6 °F - 59.0 °F 88% 29.98 in 6.2 mi West 5.8 mph - N/A   Overcast
8:00 AM 62 °F - 57 °F 80% 29.98 in - SW 6.9 mph - -  
8:00 AM 62.6 °F - 57.2 °F 82% 29.98 in 6.2 mi SW 6.9 mph - N/A   Overcast
8:30 AM 62.6 °F - 57.2 °F 82% 29.98 in 6.2 mi South 2.3 mph - N/A   Overcast
9:00 AM 63 °F - 58 °F 77% 29.99 in 7 mi SSW 3.5 mph - -   Haze
9:00 AM 62.6 °F - 57.2 °F 82% 29.98 in 6.2 mi SSW 3.5 mph - N/A   Overcast
9:30 AM 64.4 °F - 57.2 °F 77% 29.98 in 6.2 mi South 2.3 mph - N/A   Mostly Cloudy
10:00 AM 68.0 °F - 59.0 °F 73% 29.95 in 6.2 mi East 4.6 mph - N/A   Mostly Cloudy
10:21 AM 69.8 °F - 59.0 °F 68% 29.95 in 6.2 mi East 5.8 mph - N/A   Scattered Clouds
10:30 AM 69.8 °F - 59.0 °F 68% 29.95 in 6.2 mi ENE 5.8 mph - N/A   Partly Cloudy
11:00 AM 69 °F - 59 °F 62% 29.96 in - SSE 4.6 mph - -  
11:00 AM 69.8 °F - 59.0 °F 68% 29.95 in 6.2 mi SSE 4.6 mph - N/A   Partly Cloudy
11:30 AM 73.4 °F - 60.8 °F 65% 29.95 in 6.2 mi ENE 4.6 mph - N/A   Partly Cloudy
12:00 PM 76 °F - 60 °F 49% 29.94 in 12 mi East 5.8 mph - -   Haze
12:00 PM 75.2 °F - 60.8 °F 61% 29.92 in 6.2 mi East 5.8 mph - N/A   Partly Cloudy
12:30 PM 77.0 °F - 60.8 °F 57% 29.92 in 6.2 mi ESE 5.8 mph - N/A   Partly Cloudy
1:00 PM 78.8 °F - 60.8 °F 54% 29.92 in 6.2 mi SSE 5.8 mph - N/A   Partly Cloudy
1:30 PM 80.6 °F 81.1 °F 59.0 °F 48% 29.89 in 6.2 mi SSE 3.5 mph - N/A   Partly Cloudy
2:00 PM 82 °F - 58 °F 33% 29.90 in - SSE 8.1 mph - -  
2:00 PM 82.4 °F 82.0 °F 57.2 °F 42% 29.89 in 6.2 mi SSE 8.1 mph - N/A   Partly Cloudy
2:30 PM 84.2 °F 83.5 °F 57.2 °F 40% 29.89 in 6.2 mi SSE 8.1 mph - N/A   Partly Cloudy
3:00 PM 84 °F - 60 °F 34% 29.88 in 9 mi South 11.5 mph - -   Haze
3:00 PM 84.2 °F 83.8 °F 59.0 °F 42% 29.89 in - South 11.5 mph - N/A   Unknown
3:30 PM 84.2 °F 83.5 °F 57.2 °F 40% 29.89 in 6.2 mi South 10.4 mph - N/A   Scattered Clouds
4:00 PM 84.2 °F 83.0 °F 55.4 °F 37% 29.86 in 6.2 mi South 9.2 mph - N/A   Partly Cloudy
4:30 PM 86.0 °F 84.5 °F 55.4 °F 35% 29.86 in 6.2 mi SSE 10.4 mph - N/A   Partly Cloudy
5:00 PM 84 °F - 58 °F 31% 29.85 in - SSE 13.8 mph - -  
5:00 PM 84.2 °F 83.8 °F 59.0 °F 42% 29.86 in 6.2 mi SSE 13.8 mph - N/A   Partly Cloudy
5:30 PM 82.4 °F 82.9 °F 60.8 °F 48% 29.86 in 6.2 mi South 12.7 mph - N/A   Partly Cloudy
6:00 PM 82 °F - 60 °F 37% 29.85 in 19 mi South 10.4 mph - -   Partly Cloudy
6:00 PM 82.4 °F 82.9 °F 60.8 °F 48% 29.86 in 6.2 mi South 10.4 mph - N/A   Partly Cloudy
6:30 PM 80.6 °F 81.5 °F 60.8 °F 51% 29.83 in 6.2 mi South 10.4 mph - N/A   Partly Cloudy
7:00 PM 78.8 °F - 60.8 °F 54% 29.83 in 6.2 mi South 9.2 mph - N/A   Partly Cloudy
7:30 PM 78.8 °F - 60.8 °F 54% 29.83 in - South 9.2 mph - N/A   Clear
8:00 PM 75 °F - 62 °F 54% 29.86 in - South 9.2 mph - -  
8:00 PM 75.2 °F - 60.8 °F 61% 29.86 in - South 9.2 mph - N/A   Clear
8:30 PM 73.4 °F - 62.6 °F 69% 29.86 in - South 6.9 mph - N/A   Clear
9:00 PM 72 °F - 62 °F 63% 29.88 in 16 mi SSW 5.8 mph - -   Haze
9:00 PM 71.6 °F - 62.6 °F 73% 29.86 in - SSW 5.8 mph - N/A   Clear
9:30 PM 71.6 °F - 62.6 °F 73% 29.86 in - SSW 4.6 mph - N/A   Clear
10:00 PM 69.8 °F - 62.6 °F 78% 29.86 in - WSW 5.8 mph - N/A   Clear
10:30 PM 68.0 °F - 62.6 °F 83% 29.86 in - West 8.1 mph - N/A   Clear
11:00 PM 66 °F - 63 °F 87% 29.88 in - West 9.2 mph - -  
11:00 PM 66.2 °F - 62.6 °F 88% 29.89 in - West 9.2 mph - N/A   Clear
11:30 PM 64.4 °F - 62.6 °F 94% 29.86 in - WNW 6.9 mph - N/A   Clear